VLG2PY LEBB-LEPA

Flight info

Callsign VLG2PY
Flight time 1h 3m
Altitude 31000
Route PPN M601 BCN Z167 LORES
Aircraft A20N/M-SDE2E3FGHIRWXY/LB1

Departure

Time 2026-05-05 20:40
Airport Bilbao Airport (LEBB)

Arrival

Time 2026-05-05 21:43
Airport Palma de Mallorca Airport (LEPA)
Time Latitude Longitude Altitude Speed Heading
2026-05-05 20:06 43.30483 -2.90808 132 ft 0 kts 25°
2026-05-05 20:30 43.30468 -2.90817 132 ft 2 kts 26°
2026-05-05 20:31 43.30454 -2.90827 132 ft 2 kts 27°
2026-05-05 20:31 43.30439 -2.90838 132 ft 2 kts 30°
2026-05-05 20:31 43.30425 -2.90851 132 ft 2 kts 40°
2026-05-05 20:31 43.30415 -2.90868 132 ft 2 kts 73°
2026-05-05 20:32 43.30413 -2.90882 132 ft 1 kts 88°
2026-05-05 20:33 43.30413 -2.90876 132 ft 2 kts 88°
2026-05-05 20:33 43.30414 -2.90852 132 ft 3 kts 88°
2026-05-05 20:34 43.30412 -2.90810 132 ft 5 kts 97°
2026-05-05 20:34 43.30396 -2.90757 132 ft 7 kts 116°
2026-05-05 20:34 43.30372 -2.90689 132 ft 9 kts 116°
2026-05-05 20:34 43.30337 -2.90611 132 ft 11 kts 133°
2026-05-05 20:35 43.30275 -2.90548 132 ft 11 kts 145°
2026-05-05 20:35 43.30199 -2.90540 132 ft 12 kts 209°
2026-05-05 20:35 43.30128 -2.90570 132 ft 11 kts 163°
2026-05-05 20:35 43.30087 -2.90480 132 ft 12 kts 117°
2026-05-05 20:36 43.30044 -2.90367 132 ft 15 kts 117°
2026-05-05 20:36 43.29995 -2.90235 132 ft 16 kts 116°
2026-05-05 20:36 43.29949 -2.90108 132 ft 14 kts 117°
2026-05-05 20:36 43.29904 -2.89988 132 ft 15 kts 117°
2026-05-05 20:37 43.29852 -2.89849 132 ft 16 kts 117°
2026-05-05 20:37 43.29809 -2.89733 132 ft 14 kts 117°
2026-05-05 20:37 43.29767 -2.89615 132 ft 12 kts 119°
2026-05-05 20:37 43.29696 -2.89608 132 ft 12 kts 221°
2026-05-05 20:38 43.29649 -2.89706 132 ft 13 kts 254°
2026-05-05 20:38 43.29666 -2.89828 132 ft 14 kts 285°
2026-05-05 20:38 43.29701 -2.89948 132 ft 13 kts 297°
2026-05-05 20:38 43.29740 -2.90055 132 ft 12 kts 296°
2026-05-05 20:39 43.29775 -2.90149 133 ft 5 kts 297°
2026-05-05 20:39 43.29778 -2.90157 133 ft 0 kts 297°
2026-05-05 20:39 43.29780 -2.90164 133 ft 6 kts 297°
2026-05-05 20:39 43.29909 -2.90522 127 ft 81 kts 295°
2026-05-05 20:40 43.30265 -2.91497 143 ft 144 kts 296°
2026-05-05 20:40 43.30730 -2.92788 694 ft 151 kts 294°
2026-05-05 20:40 43.31197 -2.94092 1506 ft 153 kts 295°
2026-05-05 20:40 43.31663 -2.95426 2251 ft 160 kts 292°
2026-05-05 20:41 43.32116 -2.96913 2847 ft 178 kts 293°
2026-05-05 20:41 43.32753 -2.98472 3426 ft 200 kts 313°
2026-05-05 20:41 43.33903 -2.99605 4422 ft 206 kts 328°
2026-05-05 20:41 43.35135 -3.00624 5521 ft 208 kts 325°
2026-05-05 20:42 43.36311 -3.01827 6565 ft 212 kts 319°
2026-05-05 20:42 43.37402 -3.03208 7552 ft 215 kts 314°
2026-05-05 20:42 43.38434 -3.04697 8534 ft 220 kts 312°
2026-05-05 20:42 43.39469 -3.06283 9521 ft 224 kts 311°
2026-05-05 20:43 43.40701 -3.07634 10352 ft 236 kts 335°
2026-05-05 20:43 43.42384 -3.08030 10918 ft 258 kts
2026-05-05 20:43 43.44097 -3.07173 11797 ft 269 kts 32°
2026-05-05 20:43 43.45382 -3.05246 12715 ft 280 kts 59°
2026-05-05 20:44 43.45990 -3.02697 13612 ft 289 kts 77°
2026-05-05 20:44 43.46492 -3.00007 14467 ft 291 kts 68°
2026-05-05 20:44 43.47376 -2.97503 15312 ft 291 kts 54°
2026-05-05 20:44 43.48607 -2.95278 16142 ft 292 kts 45°
2026-05-05 20:45 43.50830 -2.90549 17764 ft 307 kts 77°
2026-05-05 20:45 43.50828 -2.87582 18492 ft 315 kts 102°
2026-05-05 20:45 43.50088 -2.84706 19016 ft 328 kts 113°
2026-05-05 20:46 43.49092 -2.81818 19315 ft 345 kts 116°
2026-05-05 20:46 43.48014 -2.78835 20005 ft 349 kts 116°
2026-05-05 20:46 43.46950 -2.75806 20735 ft 352 kts 115°
2026-05-05 20:46 43.45905 -2.72723 21426 ft 356 kts 114°
2026-05-05 20:47 43.44883 -2.69638 22114 ft 359 kts 114°
2026-05-05 20:47 43.43847 -2.66478 22781 ft 364 kts 114°
2026-05-05 20:47 43.42801 -2.63278 23480 ft 367 kts 114°
2026-05-05 20:47 43.41758 -2.60084 24042 ft 371 kts 114°
2026-05-05 20:48 43.40691 -2.56825 24575 ft 375 kts 114°
2026-05-05 20:48 43.39609 -2.53529 25102 ft 379 kts 115°
2026-05-05 20:48 43.38514 -2.50199 25625 ft 383 kts 115°
2026-05-05 20:48 43.37409 -2.46846 26147 ft 387 kts 115°
2026-05-05 20:49 43.36290 -2.43455 26645 ft 391 kts 115°
2026-05-05 20:49 43.35176 -2.40079 27141 ft 394 kts 115°
2026-05-05 20:49 43.34036 -2.36634 27620 ft 398 kts 115°
2026-05-05 20:49 43.32881 -2.33147 28100 ft 402 kts 116°
2026-05-05 20:50 43.31621 -2.29691 28558 ft 404 kts 124°
2026-05-05 20:50 43.29906 -2.26638 28997 ft 404 kts 137°
2026-05-05 20:50 43.27797 -2.24167 29412 ft 404 kts 147°
2026-05-05 20:50 43.25490 -2.21883 29604 ft 415 kts 147°
2026-05-05 20:51 43.23113 -2.19518 29725 ft 426 kts 147°
2026-05-05 20:51 43.20681 -2.17091 29857 ft 438 kts 147°
2026-05-05 20:51 43.18191 -2.14601 29978 ft 448 kts 147°
2026-05-05 20:51 43.15637 -2.12048 30088 ft 458 kts 147°
2026-05-05 20:52 43.13027 -2.09442 30189 ft 467 kts 147°
2026-05-05 20:52 43.10409 -2.06830 30406 ft 471 kts 147°
2026-05-05 20:52 43.07753 -2.04182 30649 ft 473 kts 147°
2026-05-05 20:52 43.05079 -2.01519 30890 ft 475 kts 147°
2026-05-05 20:53 43.02404 -1.98859 31014 ft 476 kts 147°
2026-05-05 20:53 42.99761 -1.96235 31018 ft 475 kts 147°
2026-05-05 20:53 42.94405 -1.90926 31018 ft 476 kts 148°
2026-05-05 20:54 42.89041 -1.85623 31015 ft 476 kts 148°
2026-05-05 20:54 42.83673 -1.80326 31018 ft 477 kts 148°
2026-05-05 20:55 42.78308 -1.75044 31022 ft 478 kts 148°
2026-05-05 20:55 42.73404 -1.68909 31014 ft 487 kts 131°
2026-05-05 20:56 42.71550 -1.65019 31014 ft 492 kts 120°
2026-05-05 20:56 42.70064 -1.60814 31025 ft 493 kts 118°
2026-05-05 20:56 42.67125 -1.52384 31008 ft 493 kts 118°
2026-05-05 20:57 42.64165 -1.43975 31015 ft 493 kts 118°
2026-05-05 20:57 42.61214 -1.35633 31013 ft 493 kts 118°
2026-05-05 20:58 42.58233 -1.27237 31002 ft 493 kts 119°
2026-05-05 20:58 42.55247 -1.18849 30999 ft 493 kts 119°
2026-05-05 20:59 42.52266 -1.10502 30996 ft 494 kts 119°
2026-05-05 20:59 42.49251 -1.02084 30997 ft 494 kts 119°
2026-05-05 21:00 42.46260 -0.93744 30989 ft 494 kts 119°
2026-05-05 21:00 42.43248 -0.85364 30986 ft 495 kts 120°
2026-05-05 21:01 42.40224 -0.76989 30983 ft 495 kts 120°
2026-05-05 21:01 42.37199 -0.68647 30973 ft 495 kts 120°
2026-05-05 21:02 42.34155 -0.60272 30974 ft 497 kts 120°
2026-05-05 21:02 42.31097 -0.51882 30970 ft 497 kts 120°
2026-05-05 21:03 42.28049 -0.43538 30964 ft 497 kts 120°
2026-05-05 21:03 42.24979 -0.35163 30963 ft 497 kts 120°
2026-05-05 21:04 42.21897 -0.26780 30970 ft 497 kts 121°
2026-05-05 21:04 42.18814 -0.18419 30962 ft 498 kts 121°
2026-05-05 21:05 42.15744 -0.10117 30957 ft 498 kts 121°
2026-05-05 21:05 42.12656 -0.01791 30952 ft 498 kts 121°
2026-05-05 21:06 42.10076 0.05147 30950 ft 498 kts 121°
2026-05-05 21:06 42.06961 0.13502 30946 ft 498 kts 121°
2026-05-05 21:07 42.03841 0.21847 30948 ft 499 kts 122°
2026-05-05 21:07 42.00733 0.30132 30953 ft 499 kts 122°
2026-05-05 21:08 41.97595 0.38475 30959 ft 500 kts 122°
2026-05-05 21:08 41.94445 0.46827 30956 ft 500 kts 122°
2026-05-05 21:09 41.91294 0.55152 30967 ft 500 kts 122°
2026-05-05 21:09 41.88149 0.63446 30972 ft 500 kts 122°
2026-05-05 21:10 41.84980 0.71780 30963 ft 501 kts 123°
2026-05-05 21:10 41.81801 0.80109 30958 ft 501 kts 123°
2026-05-05 21:11 41.78638 0.88375 30951 ft 501 kts 123°
2026-05-05 21:11 41.75441 0.96701 30952 ft 502 kts 123°
2026-05-05 21:12 41.72240 1.05018 30952 ft 503 kts 124°
2026-05-05 21:12 41.69047 1.13285 30955 ft 504 kts 124°
2026-05-05 21:13 41.65815 1.21634 30944 ft 505 kts 124°
2026-05-05 21:13 41.62573 1.29984 30937 ft 506 kts 124°
2026-05-05 21:14 41.59323 1.38328 30939 ft 507 kts 125°
2026-05-05 21:14 41.56054 1.46697 30941 ft 508 kts 125°
2026-05-05 21:15 41.52800 1.55007 30950 ft 508 kts 125°
2026-05-05 21:15 41.49513 1.63376 30944 ft 509 kts 125°
2026-05-05 21:16 41.46223 1.71730 30946 ft 508 kts 125°
2026-05-05 21:16 41.42929 1.80071 30933 ft 507 kts 125°
2026-05-05 21:17 41.39657 1.88332 30929 ft 506 kts 126°
2026-05-05 21:17 41.36370 1.96604 30932 ft 504 kts 126°
2026-05-05 21:18 41.33101 2.04808 30936 ft 503 kts 126°
2026-05-05 21:18 41.31200 2.08640 30935 ft 489 kts 138°
2026-05-05 21:18 41.28849 2.11809 30935 ft 473 kts 150°
2026-05-05 21:19 41.26180 2.14216 30934 ft 458 kts 161°
2026-05-05 21:19 41.23393 2.16266 30933 ft 457 kts 161°
2026-05-05 21:19 41.17853 2.20364 30933 ft 458 kts 160°
2026-05-05 21:20 41.12290 2.24496 30932 ft 457 kts 160°
2026-05-05 21:20 41.06735 2.28618 30593 ft 456 kts 160°
2026-05-05 21:21 41.03965 2.30672 30344 ft 454 kts 160°
2026-05-05 21:21 41.01246 2.32685 30106 ft 453 kts 160°
2026-05-05 21:21 40.98493 2.34721 29840 ft 451 kts 160°
2026-05-05 21:21 40.95760 2.36740 29552 ft 449 kts 160°
2026-05-05 21:22 40.93033 2.38753 29264 ft 447 kts 160°
2026-05-05 21:22 40.90318 2.40754 28982 ft 445 kts 160°
2026-05-05 21:22 40.87647 2.42722 28698 ft 443 kts 160°
2026-05-05 21:22 40.84955 2.44702 28215 ft 442 kts 160°
2026-05-05 21:23 40.82275 2.46672 27609 ft 439 kts 160°
2026-05-05 21:23 40.79617 2.48627 27021 ft 434 kts 160°
2026-05-05 21:23 40.76997 2.50553 26423 ft 428 kts 160°
2026-05-05 21:23 40.74405 2.52455 25829 ft 423 kts 160°
2026-05-05 21:24 40.71839 2.54335 25250 ft 418 kts 160°
2026-05-05 21:24 40.69307 2.56187 24663 ft 415 kts 160°
2026-05-05 21:24 40.66826 2.58000 24059 ft 411 kts 161°
2026-05-05 21:24 40.64331 2.59821 23502 ft 407 kts 161°
2026-05-05 21:25 40.61863 2.61620 22887 ft 403 kts 160°
2026-05-05 21:25 40.59423 2.63401 22315 ft 397 kts 160°
2026-05-05 21:25 40.57020 2.65152 21762 ft 392 kts 160°
2026-05-05 21:25 40.54643 2.66880 21194 ft 387 kts 160°
2026-05-05 21:26 40.52297 2.68585 20627 ft 383 kts 160°
2026-05-05 21:26 40.50004 2.70250 20082 ft 379 kts 160°
2026-05-05 21:26 40.47708 2.71916 19535 ft 375 kts 160°
2026-05-05 21:26 40.45435 2.73563 18990 ft 371 kts 160°
2026-05-05 21:27 40.43178 2.75197 18433 ft 369 kts 159°
2026-05-05 21:27 40.40940 2.76816 17844 ft 366 kts 159°
2026-05-05 21:27 40.38727 2.78418 17322 ft 360 kts 159°
2026-05-05 21:27 40.36543 2.79997 16786 ft 356 kts 159°
2026-05-05 21:28 40.34382 2.81558 16251 ft 352 kts 158°
2026-05-05 21:28 40.32247 2.83098 15734 ft 349 kts 158°
2026-05-05 21:28 40.30127 2.84627 15198 ft 346 kts 158°
2026-05-05 21:28 40.28058 2.86118 14825 ft 339 kts 158°
2026-05-05 21:29 40.26033 2.87584 14686 ft 325 kts 158°
2026-05-05 21:29 40.24091 2.88992 14542 ft 313 kts 158°
2026-05-05 21:29 40.22201 2.90354 14228 ft 307 kts 158°
2026-05-05 21:29 40.20346 2.91687 13988 ft 300 kts 158°
2026-05-05 21:30 40.18503 2.93006 13742 ft 302 kts 158°
2026-05-05 21:30 40.16647 2.94333 13351 ft 304 kts 157°
2026-05-05 21:30 40.14822 2.95643 12970 ft 301 kts 157°
2026-05-05 21:30 40.12988 2.96961 12588 ft 298 kts 157°
2026-05-05 21:31 40.11177 2.98261 12197 ft 295 kts 157°
2026-05-05 21:31 40.09385 2.99547 11825 ft 293 kts 157°
2026-05-05 21:31 40.07606 3.00821 11451 ft 290 kts 157°
2026-05-05 21:31 40.05839 3.02087 11075 ft 288 kts 157°
2026-05-05 21:32 40.04083 3.03343 10698 ft 286 kts 156°
2026-05-05 21:32 40.02365 3.04571 10336 ft 284 kts 156°
2026-05-05 21:32 40.00633 3.05809 9971 ft 283 kts 156°
2026-05-05 21:32 39.98907 3.07042 9578 ft 281 kts 156°
2026-05-05 21:33 39.97199 3.08262 9216 ft 278 kts 156°
2026-05-05 21:33 39.95509 3.09469 8847 ft 276 kts 156°
2026-05-05 21:33 39.93841 3.10633 8477 ft 273 kts 160°
2026-05-05 21:33 39.92026 3.11263 8105 ft 264 kts 180°
2026-05-05 21:34 39.90235 3.11155 7756 ft 259 kts 190°
2026-05-05 21:34 39.88448 3.10915 7402 ft 258 kts 190°
2026-05-05 21:34 39.86663 3.10686 7045 ft 257 kts 189°
2026-05-05 21:34 39.84883 3.10463 6646 ft 257 kts 189°
2026-05-05 21:35 39.83121 3.10244 6371 ft 258 kts 189°
2026-05-05 21:35 39.81252 3.10009 6344 ft 274 kts 189°
2026-05-05 21:35 39.79353 3.09774 6113 ft 273 kts 188°
2026-05-05 21:35 39.77474 3.09546 5834 ft 269 kts 188°
2026-05-05 21:36 39.75600 3.09317 5579 ft 270 kts 188°
2026-05-05 21:36 39.73734 3.09089 5325 ft 268 kts 188°
2026-05-05 21:36 39.71895 3.08771 5067 ft 261 kts 200°
2026-05-05 21:36 39.70395 3.07638 4831 ft 248 kts 228°
2026-05-05 21:37 39.69439 3.05828 4586 ft 240 kts 242°
2026-05-05 21:37 39.68627 3.03956 4326 ft 235 kts 242°
2026-05-05 21:37 39.67809 3.02144 4069 ft 228 kts 240°
2026-05-05 21:37 39.66997 3.00421 3812 ft 219 kts 240°
2026-05-05 21:38 39.66228 2.98794 3593 ft 209 kts 240°
2026-05-05 21:38 39.65489 2.97235 3490 ft 196 kts 240°
2026-05-05 21:38 39.64794 2.95765 3388 ft 186 kts 240°
2026-05-05 21:38 39.64123 2.94347 3184 ft 183 kts 240°
2026-05-05 21:39 39.63458 2.92941 2966 ft 182 kts 240°
2026-05-05 21:39 39.62800 2.91549 2755 ft 179 kts 240°
2026-05-05 21:39 39.62167 2.90212 2538 ft 172 kts 240°
2026-05-05 21:39 39.61559 2.88926 2310 ft 163 kts 240°
2026-05-05 21:40 39.60989 2.87719 2105 ft 150 kts 241°
2026-05-05 21:40 39.60464 2.86610 1902 ft 139 kts 241°
2026-05-05 21:40 39.59977 2.85576 1725 ft 129 kts 241°
2026-05-05 21:40 39.59518 2.84605 1552 ft 128 kts 241°
2026-05-05 21:41 39.59053 2.83618 1386 ft 126 kts 240°
2026-05-05 21:41 39.58597 2.82651 1209 ft 126 kts 240°
2026-05-05 21:41 39.58146 2.81695 1051 ft 125 kts 239°
2026-05-05 21:41 39.57689 2.80728 862 ft 126 kts 240°
2026-05-05 21:42 39.57230 2.79756 693 ft 124 kts 240°
2026-05-05 21:42 39.56780 2.78800 537 ft 125 kts 239°
2026-05-05 21:42 39.56325 2.77842 367 ft 124 kts 239°
2026-05-05 21:42 39.55883 2.76876 208 ft 125 kts 240°
2026-05-05 21:43 39.55429 2.75934 47 ft 124 kts 239°
2026-05-05 21:43 39.55030 2.75076 30 ft 88 kts 238°
2026-05-05 21:43 39.54833 2.74615 30 ft 29 kts 254°
2026-05-05 21:43 39.54811 2.74492 30 ft 12 kts 261°
2026-05-05 21:44 39.54805 2.74375 30 ft 13 kts 269°
2026-05-05 21:44 39.54802 2.74247 30 ft 16 kts 268°
2026-05-05 21:44 39.54775 2.74097 30 ft 16 kts 240°
2026-05-05 21:44 39.54717 2.73976 30 ft 17 kts 240°
2026-05-05 21:45 39.54651 2.73835 30 ft 20 kts 237°
2026-05-05 21:45 39.54575 2.73673 30 ft 22 kts 239°
2026-05-05 21:45 39.54495 2.73506 30 ft 18 kts 238°
2026-05-05 21:45 39.54425 2.73356 30 ft 21 kts 238°
2026-05-05 21:46 39.54355 2.73207 30 ft 17 kts 238°
2026-05-05 21:46 39.54288 2.73066 30 ft 20 kts 239°
2026-05-05 21:46 39.54219 2.72912 30 ft 11 kts 254°
2026-05-05 21:46 39.54268 2.72848 30 ft 12 kts 17°
2026-05-05 21:47 39.54319 2.72949 30 ft 16 kts 59°
2026-05-05 21:47 39.54382 2.73083 30 ft 19 kts 58°
2026-05-05 21:47 39.54458 2.73243 30 ft 20 kts 58°
2026-05-05 21:47 39.54480 2.73290 30 ft 3 kts 58°
2026-05-05 21:48 39.54500 2.73330 30 ft 5 kts 47°
2026-05-05 21:48 39.54540 2.73330 30 ft 2 kts 347°
2026-05-05 21:48 39.54555 2.73326 30 ft 0 kts 347°